    Orbital elements:
    1998 EC3
    Epoch 1998 Feb. 16.0 TT = JDT 2450860.5                 Williams
    M 314.79453              (2000.0)            P               Q
    n   0.31801987     Peri.  128.40849     -0.22001725     +0.96876449
    a   2.1256898      Node   128.49427     -0.93436983     -0.17559406
    e   0.5114568      Incl.    8.40495     -0.28025958     -0.17510591
    P   3.10           H   16.5           G   0.15
    From 82 observations 1998 Mar. 1-3.
    
    Ephemeris:
    1998 EC3                 a,e,i = 2.13, 0.51, 8                   q = 1.0385
    Date    TT    R. A. (2000) Decl.     Delta      r     Elong.  Phase     V
    1998 02 26    10 32.75   +18 36.8    0.761    1.744   170.2     5.5    17.6
    1998 03 08    10 18.40   +21 36.1    0.711    1.675   158.8    12.4    17.6
    1998 03 18    10 03.85   +24 17.9    0.683    1.605   145.4    20.6    17.7
    1998 03 28    09 51.70   +26 23.9    0.672    1.535   132.6    28.6    17.8
    1998 04 07    09 44.15   +27 46.1    0.672    1.465   121.0    35.8    17.9
    1998 04 17    09 42.35   +28 26.1    0.677    1.396   110.9    42.2    18.0
    1998 04 27    09 46.47   +28 28.5    0.681    1.329   102.2    47.7    18.1
    1998 05 07    09 56.23   +27 57.1    0.680    1.265    95.0    52.6    18.1
    1998 05 17    10 10.97   +26 54.0    0.672    1.206    89.1    57.0    18.1
    1998 05 27    10 30.12   +25 18.5    0.657    1.152    84.4    61.0    18.1
    1998 06 06    10 53.26   +23 07.3    0.633    1.107    80.8    64.8    18.0
    1998 06 16    11 20.05   +20 15.7    0.602    1.072    78.4    68.2    17.9
    1998 06 26    11 50.48   +16 36.0    0.566    1.049    77.3    71.0    17.9
    1998 07 06    12 24.87   +11 59.4    0.528    1.039    77.4    72.8    17.7
    1998 07 16    13 03.72   +06 18.4    0.493    1.043    79.1    73.2    17.6
    1998 07 26    13 47.78   -00 26.4    0.467    1.060    82.4    71.7    17.5
    1998 08 05    14 37.51   -07 53.3    0.455    1.091    87.1    68.3    17.4
    1998 08 15    15 32.20   -15 11.4    0.464    1.132    92.4    63.4    17.4
    1998 08 25    16 29.55   -21 17.3    0.496    1.182    97.4    58.0    17.4
    1998 09 04    17 26.02   -25 29.3    0.552    1.239   101.0    53.0    17.6
    1998 09 14    18 18.24   -27 45.0    0.629    1.301   103.0    48.9    17.9
    1998 09 24    19 04.53   -28 27.6    0.725    1.367   103.4    45.6    18.2
    1998 10 04    19 44.78   -28 05.7    0.836    1.435   102.4    42.9    18.6
    1998 10 14    20 19.72   -27 02.2    0.961    1.505   100.4    40.7    18.9
    1998 10 24    20 50.38   -25 32.7    1.097    1.575    97.6    38.8    19.2
    1998 11 03    21 17.73   -23 47.0    1.243    1.645    94.1    37.0    19.6
    1998 11 13    21 42.52   -21 51.6    1.397    1.715    90.2    35.3    19.8
    1998 11 23    22 05.37   -19 50.1    1.557    1.783    85.9    33.5    20.1
    1998 12 03    22 26.72   -17 45.2    1.722    1.851    81.3    31.8    20.4
    1998 12 13    22 46.89   -15 38.8    1.891    1.917    76.5    30.0    20.6
    1998 12 23    23 06.16   -13 32.0    2.060    1.982    71.5    28.1    20.8
    1999 01 02    23 24.70   -11 25.8    2.230    2.046    66.4    26.1    21.0
    1999 01 12    23 42.66   -09 21.1    2.397    2.107    61.2    24.1    21.1
    1999 01 22    00 00.17   -07 18.5    2.561    2.167    55.9    22.1    21.3
    1999 02 01    00 17.29   -05 18.7    2.719    2.226    50.5    20.0    21.4
    1999 02 11    00 34.09   -03 22.2    2.870    2.282    45.0    17.8    21.5
    1999 02 21    00 50.64   -01 29.6    3.013    2.337    39.6    15.6    21.6
    1999 03 03    01 06.96   +00 18.8    3.145    2.390    34.1    13.4    21.7
    
    Gareth V. Williams           (C) Copyright 1998 MPC           M.P.E.C. 1998-E08
    

    Read MPEC 1998-E07 Read MPEC 1998-E09


    MPEC number:

    Enter an MPEC number in one of the following forms:

    • 1997-B01 (the full form)
    • J97B01 (the packed version of the full form)
    • B01 (the abbreviated form)